Find Kosmos-983

NORAD ID: 10590 Int'l Des: 1978-005 Owner: GUKOSR Country: SU operational
LEOCIRCULAR

实时位置

正在加载3D地球...

关于 Kosmos-983

正在加载描述...

即将过境

Passes for default location (London). Set your location on the main map for personalized predictions.

高度历史

Loading altitude history...

两行轨道根数

1 10590U 78005H 26105.87647537 -.00000026 00000-0 -79760-4 0 9999
2 10590 74.0309 62.3757 0046138 115.3772 245.2061 12.41510638187252
Epoch: Apr 15, 2026 • Age: 10 hours

当前状态

高度 1523.5 km
速度 7.09 km/s
星下点 -7.81°S, 115.27°E
发射日期 Jan 10, 1978
运行时间 48.2 years
类型 other

技术详情

分类 Payload
质量 60.00 kg
干质量 60.00 kg
总质量 60.00 kg
长度 0.80 m
直径 0.80 m
跨度 0.80 m
形状 Poly
制造商 NPOPM
平台类型 Strela-1 11F625
阶段状态 In Orbit
所有者/国家 GUKOSR/SU

Most Searched